STARLINK-11640, 63314

Orbit data source: Space-Track

STARLINK-11640, 63314 is a payload satellite owned by SpaceX/Seattle (US) in LEO that was launched on Tue, 18 Mar 2025 UTC via an FALCON 9 launch vehicle from the Air Force Eastern Test Range (AFETR). Payload-class satellites include a variety of spacecraft equipped with specific instruments for various scientific and technological missions. These include communications satellites like Starlink; space stations such as the ISS; scientific satellites like the Hubble; Earth observation satellites from companies like Planet Labs, Umbra, and HawkEye 360; GPS; miniature CubeSats for education and research; and military/defense satellites.

Loading next visibility...
Identifier
63314, 2025-057H
Orbit
LEO
Country
Flag of USUS
Related business
Manufacturer
SpaceX/Seattle
Mission
Operational Commercial Communications
Bus & Motor
STARLINK V2MD, Unknown motor
Mass
960 kg wet, ~910 kg dry
Launch date (UTC)
2025-03-18 (1 year ago)
Launch vehicle
FALCON 9
Launch site
Air Force Eastern Test Range (AFETR)
Object type
Payload
Rocket body
Debris
Shape & HBR
Box + 2 Pan, 18.1 m
Radar Cross Section
36.964 m², Large (>1 m²)

Expand to show TLE details & history
Last TLE update: 14 hours ago

TLE from 14 hours ago
0 STARLINK-11640
1 63314U 25057H   26126.47014139  .00172039  00000-0  13181-2 0  9990
2 63314  43.0018 276.3694 0002951 292.2448  67.8106 15.70811253 66261
Epoch: 2026-05-06T11:17Z
TLE epoch observation values (Epoch: 2026-05-06T11:17:00.216Z)
Latitude
-0.00004°
Longitude
-117.21171°
Altitude
355.599 km
Speed
7.698 km/s
True Right ascension
18h 25m 28s
True Declination
0° 00' 00"
Sunlit
Object was in full shadow at epoch
Visualization orbit readout
Latitude
Unknown
Longitude
Unknown
Altitude
Unknown
Speed
Unknown
Apparent Right ascension
Unknown
Apparent Declination
Unknown
Sunlit
N/A
Visualization observer readout
Local Sidereal Time
09:41:55
Azimuth
Unknown
Elevation
Unknown
Doppler factor
Unknown
Orbital elements
Apogee altitude
360.546 km
Perigee altitude
356.57 km
Semi-major axis
6,736.695 km
Eccentricity
0.0003
Inclination
43.0018°
RAAN
276.3694°
Arg. of periapsis
292.2448°
True anomaly
67.84192°
Mean anomaly
67.8106°
Eccentric anomaly
67.82626°
Mean motion
3.9253 °/min
Orbital period
91.71 mins
BSTAR
0.0013181
Loading maneuver chart data...
Computing Atmospheric mass density...
Loading historical data...
Loading historical data...
Loading historical data...
Loading historical data...
Loading historical data...
Loading historical data...
Loading historical data...

Documentation

Showing up to 5 results
|